Regional Weather Roundup
Issued by NWS Portland, ME

Current Version | Previous Version | Text Only | Print | Product List | Glossary Off
Versions: 1 2 3 4 5 6 7 8 9 10 11 12 13 14 15 16 17 18 19 20 21 22 23 24 25 26 27 28 29 30 31 32 33 34 35 36 37 38 39 40 41 42 43 44 45 46 47 48 49 50
000 ASUS41 KGYX 180305 RWRGYX WEATHER ROUNDUP FOR MAINE AND NEW HAMPSHIRE NATIONAL WEATHER SERVICE GRAY ME 1100 PM EDT SUN JUN 17 2018 MEZ002-005-006-010-012-015-018-020-021-024-026-027-029-180400- MAINE CITY SKY/WX TMP DP RH WIND PRES REMARKS PORTLAND FAIR 55 54 96 VRB7 30.05F SANFORD FAIR 53 52 96 CALM 30.05F BAR HARBOR FAIR 54 50 86 S9 30.09S WISCASSET MOCLDY 54 52 93 CALM 30.08S ROCKLAND CLOUDY 53 51 93 CALM 30.07F FRYEBURG FAIR 58 56 93 CALM 30.04F LEWISTONAUBURN FAIR 55 52 89 SE3 30.06F AUGUSTA FAIR 55 51 86 S5 30.06F WATERVILLE FAIR 56 51 84 CALM 30.03F BANGOR CLOUDY 55 50 83 S8 30.06F GREENVILLE N/A 57 50 77 SE9 30.00F MILLINOCKET FAIR 59 46 62 VRB3 30.02F HOULTON CLOUDY 57 41 55 S6 30.01F PRESQUE ISLE CLOUDY 58 51 78 S10 29.97F FRENCHVILLE CLOUDY 61 57 87 S15 29.92F CARIBOU CLOUDY 59 54 83 S9 29.96S $$ NHZ002-005-008-009-011-012-014-180400- NEW HAMPSHIRE CITY SKY/WX TMP DP RH WIND PRES REMARKS ROCHESTER FAIR 58 55 90 CALM 30.03F NASHUA FAIR 66 56 70 CALM 30.03F MANCHESTER FAIR 70 55 59 SE6 30.01F CONCORD FAIR 66 55 67 CALM 30.03S LACONIA FAIR 67 54 63 CALM 30.04S PLYMOUTH FAIR 64 55 73 CALM 30.03S BERLIN FAIR 62 56 80 CALM 30.01S WHITEFIELD FAIR 60 54 80 CALM 30.01S JAFFREY FAIR 68 57 68 S6 30.05F KEENE FAIR 62 55 77 CALM 30.03S LEBANON FAIR 61 54 77 CALM 30.01R MT WASHINGTON PTCLDY 54 43 66 W33 N/A $$ VTZ005-007-008-180400- VERMONT CITY SKY/WX TMP DP RH WIND PRES REMARKS ST JOHNSBURY N/A 65 58 78 MISG 29.99R MONTPELIER FAIR 65 49 56 CALM 30.04F BURLINGTON FAIR 78 46 32 S10 29.95F $$ MAZ007-012-024-CTZ003-RIZ002-NYZ038-NYZ072-180400- SOUTHERN NEW ENGLAND AND NY CITY SKY/WX TMP DP RH WIND PRES REMARKS BOSTON MOCLDY 69 55 60 S9 30.04F WORCESTER FAIR 68 55 63 SW9 30.08S NANTUCKET FAIR 61 59 93 SW7 30.10F PROVIDENCE FAIR 65 61 87 S5 30.07F HARTFORD FAIR 73 56 54 S8 30.04S ALBANY MOCLDY 77 58 51 S8 29.99F NEW YORK CITY FAIR 78 60 53 S12 30.06S $$ ANZ081-ANZ082-ANZ150-NHZ014-MEZ023>029-180400- COASTAL MARINE OBSERVATIONS STATION/POSITION TIME TEMP WIND PRES WAVE AIR SEA DIR/SP/G HT/PER (UTC) (F) (DEG/KT/KT) (MB) (FT/S) MOUNT DESERT ROC 0300 52 140/ 16/ 18 1018.4F MATINICUS ROCK 0200 52 140/ 16/ 18 1017.6F ISLE OF SHOALS 0200 60 80/ 7/ 7 1017.0F JEFFREYS LEDGE 0236 59 N/A 2/ 2 $$ .............KEY.............. WCI - WIND CHILL TC - TEMPERATURE IN CELSIUS VSB - VISIBILITY IN MILES HX - HEAT INDEX FAIR- INDICATES FEW OR NO CLOUDS BELOW 12,000 FT, WITH NO SIGNIFICANT WEATHER AND/OR OBSTRUCTIONS TO VISIBILITY.

USA.gov is the U.S. government's official web portal to all federal, state and local government web resources and services.